User: anonymous   Login
Location: Unspecified
(0.0000°N, 0.0000°E)
Time: 05:04:43
(UTC+00:00)
Language:

SEEDS - Orbit

View from above orbital plane
View from above orbital plane
View from above satellite
View from above satellite

Ground track
Ground track

The orbit is defined by the following mean orbital elements,

1 32791U          26150.50529315 +.00000000 +00000-0 +68228-3 0 00008
2 32791  97.7511 147.5679 0003551  49.7745 310.3805 15.32079827    07
Epoch (UTC): 30 May 2026 12:07:37
Eccentricity: 0.0003551
inclination: 97.7511°
perigee height: 467 km
apogee height: 472 km
right ascension of ascending node: 147.5679°
argument of perigee: 49.7745°
revolutions per day: 15.32079827
mean anomaly at epoch: 310.3805°

The dashed part of the orbit path shows where the satellite is in the earth's shadow,  

DLR